Simultaneous Nadir Overpasses (SNOs) Predictions

Prediction of SNOs between GOES-16 and NOAA-19 Satellite Orbit:

Table of predicted SNOs for the next 14.0 days since TLE Epoch: 11/26/2022
Index Date Time (GOES-16) GOES-16 Lat,Lon NOAA-19 Lat,Lon Distance(km) Time Diff (sec)
1 11/27/2022 01:05:04 0.07, -75.19 0.34, -74.13 121.90 80
2 11/28/2022 00:55:49 0.06, -75.20 1.01, -71.23 453.74 80
3 11/29/2022 13:28:00 -0.06, -75.22 0.79, -78.94 423.69 80
4 11/30/2022 13:16:05 -0.05, -75.23 0.12, -76.03 91.30 80
5 12/01/2022 13:01:31 -0.05, -75.24 -0.56, -73.13 241.37 80
6 12/04/2022 01:24:46 0.05, -75.27 -0.57, -78.01 313.10 80
7 12/05/2022 01:10:11 0.05, -75.28 0.12, -75.11 20.48 80
8 12/06/2022 00:58:16 0.04, -75.30 0.74, -72.20 353.69 80
9 12/08/2022 13:21:13 -0.03, -75.36 0.33, -77.01 188.16 80
10 12/09/2022 13:06:37 -0.03, -75.38 -0.30, -74.10 145.67 80
